Volver al catálogo

DELTA 1 R/B(1)

ActivoUNKNOWN
NORAD 10490·ROCKET BODY·🇺🇸 United States

Lanzado Nov 23, 1977 desde Cape Canaveral Space Force Station

Loading…

Próximos Pases (próximas 24 horas)

TLE

ActualizadoSource: Space-Track

Época: Sep 14, 2026, 20:00 UTC

1 10490U 77108B   26257.83396923  .00000471  00000-0  97377-4 0  9991
2 10490  28.2976 314.4334 1148128  29.3603 336.6769 12.71876526231124

Sigue DELTA 1 R/B(1) en tiempo real con AllMySat

Download on the App Store